Wind_Speed
89 90 95 100 103 106 107 105 106 103 101 100 100 91 92 89 85 81 82 86 86 83 82 77 74 74 76 71 71 66 63 61 58
96 98 99 99 101 106 111 111 114 112 109 105 105 105 100 94 91 90 84 83 86 89 86 85 80 79 76 72 74 74 71 69 65
102 101 101 102 104 106 109 116 117 117 119 115 110 110 111 106 103 100 94 92 89 87 86 90 87 83 83 78 73 74 74 74 72
99 103 108 111 112 111 113 113 115 120 122 122 121 117 115 113 107 102 102 103 100 95 92 88 90 89 87 85 80 78 74 74 77
100 101 103 107 109 114 116 117 118 117 121 129 129 128 124 121 117 115 112 109 106 100 95 94 92 91 87 89 88 84 81 80 78
98 101 104 107 109 112 115 121 122 122 122 123 130 131 132 128 126 123 121 115 112 111 106 99 98 97 95 89 90 85 83 84 83
97 99 103 107 110 113 116 119 122 127 127 126 126 131 136 133 134 132 129 127 122 118 109 107 107 104 102 97 94 91 88 88 89
103 103 104 106 109 113 117 121 122 126 130 132 132 131 132 138 137 137 136 135 132 126 122 117 111 110 109 104 100 97 93 91 89
107 110 112 113 114 115 117 121 124 127 129 132 137 138 136 136 136 137 139 141 137 133 131 125 120 117 115 110 109 106 102 99 96
102 106 111 116 121 120 121 122 125 130 132 134 135 139 142 142 141 141 138 137 140 139 138 134 130 127 123 119 116 113 109 106 104
85 92 99 106 113 120 125 127 128 130 134 137 140 140 141 144 146 146 145 143 141 141 139 139 137 136 131 128 123 120 119 115 113
62 68 75 85 95 105 117 126 130 133 133 137 141 143 144 145 146 148 149 148 145 145 144 141 144 144 137 135 131 129 127 124 119
64 68 73 79 84 90 99 110 124 131 136 139 140 143 146 147 148 147 147 151 151 147 146 144 143 145 144 140 139 137 133 131 127
70 74 79 81 82 82 86 91 98 110 123 134 142 144 146 148 148 149 149 148 150 152 150 147 146 144 141 142 143 144 142 137 132
71 72 72 75 74 75 77 82 85 91 100 112 124 138 144 147 147 149 151 151 150 149 151 149 148 147 145 140 142 145 145 144 138
67 66 60 60 60 62 68 75 81 87 93 97 103 113 126 138 146 148 149 150 152 152 152 151 148 146 149 143 143 146 146 145 142
65 60 50 45 45 49 54 58 63 70 78 84 90 97 106 114 125 138 145 151 151 150 152 154 152 149 147 147 146 147 145 143 142
59 53 50 43 36 36 38 43 47 52 60 67 74 80 90 100 110 118 130 139 149 152 151 152 152 153 152 150 150 151 148 143 141
58 49 45 41 35 32 30 31 34 38 46 52 58 65 73 83 93 106 114 121 130 144 152 152 152 153 154 155 156 153 148 142 140
60 54 47 41 34 31 28 23 24 28 34 39 43 51 61 69 77 88 102 113 118 126 137 148 154 154 153 154 156 155 151 146 147
Wind_Direction
248 247 245 246 242 242 241 238 237 238 238 236 236 236 236 234 231 236 238 237 237 235 236 239 237 238 238 233 233 231 231 231 235
248 247 246 246 245 244 242 242 239 237 238 238 236 236 235 236 234 232 235 237 238 237 238 239 239 239 241 238 232 234 235 236 237
249 249 246 245 244 244 243 241 241 241 240 237 237 237 235 237 233 233 235 237 236 237 240 238 241 238 240 241 237 236 235 236 238
250 248 247 246 246 245 243 241 240 240 241 240 238 237 237 236 231 232 234 240 240 237 238 241 239 240 239 242 240 239 238 238 239
255 252 249 248 246 244 243 243 241 239 238 239 239 240 238 236 232 234 235 237 242 237 237 240 240 240 241 238 242 241 241 241 241
256 254 253 251 247 245 243 242 242 242 239 238 238 239 239 238 237 234 236 236 239 238 240 241 240 242 241 241 241 241 242 242 242
258 255 253 251 249 248 246 243 242 241 241 240 238 238 237 238 239 238 235 238 239 239 235 236 242 241 240 242 243 244 243 242 242
258 256 253 251 250 248 246 245 244 241 240 240 239 238 237 237 238 238 239 238 238 237 237 238 242 239 236 239 243 246 245 247 245
258 257 256 253 250 248 247 245 243 242 241 239 239 238 238 236 236 239 238 238 237 238 238 236 239 240 239 240 242 245 244 247 245
258 256 255 254 252 250 248 245 245 243 241 239 238 238 238 238 237 235 237 238 237 238 238 236 237 239 240 242 243 242 240 245 246
262 260 257 255 253 251 250 248 245 244 243 241 239 237 237 237 237 237 235 236 238 237 238 238 236 237 238 240 241 243 244 245 245
273 269 264 260 256 253 249 248 247 245 243 242 241 239 238 236 236 237 237 235 236 238 237 237 239 238 237 237 240 242 244 245 246
280 277 273 269 265 260 255 251 249 247 245 242 241 241 240 238 236 235 236 237 235 235 236 237 237 238 239 237 240 241 242 243 244
287 285 282 278 274 269 264 259 253 250 247 246 244 241 239 240 238 236 235 235 236 236 236 236 237 237 238 238 239 240 241 242 243
297 295 290 284 278 272 267 262 258 253 250 246 245 244 242 240 239 238 236 235 235 235 236 236 237 237 237 237 239 240 240 241 242
309 306 298 290 283 274 267 262 258 254 251 248 245 243 242 241 239 238 237 236 235 235 235 235 236 236 237 236 238 239 239 240 242
323 320 314 303 290 278 270 265 260 255 253 250 248 243 239 239 238 237 236 236 235 234 235 236 235 235 235 236 237 239 239 240 241
335 330 326 320 311 293 278 269 261 256 254 251 249 246 242 238 235 234 235 234 234 233 231 233 235 235 235 235 236 238 237 239 241
347 346 342 336 330 316 299 282 272 264 258 255 251 246 242 239 236 233 232 232 232 233 232 230 231 233 235 236 236 236 238 238 239
355 360 359 352 346 340 326 300 285 274 266 260 252 246 241 237 234 233 230 229 229 230 231 230 229 230 231 234 236 237 237 237 238
Height
10799 10799 10803 10804 10811 10815 10819 10825 10830 10834 10838 10844 10850 10855 10862 10867 10873 10877 10879 10884 10889 10896 10901 10906 10912 10918 10923 10931 10937 10943 10948 10953 10958
10776 10779 10781 10783 10787 10792 10796 10802 10808 10813 10818 10824 10828 10837 10845 10852 10858 10861 10865 10870 10876 10882 10889 10894 10899 10905 10910 10918 10926 10931 10937 10943 10949
10750 10753 10756 10759 10762 10765 10769 10777 10782 10789 10796 10803 10808 10812 10820 10831 10835 10843 10849 10853 10859 10866 10872 10878 10884 10892 10898 10904 10913 10920 10926 10931 10937
10722 10724 10728 10731 10736 10739 10742 10747 10754 10762 10769 10777 10785 10790 10798 10809 10816 10825 10831 10833 10839 10848 10855 10862 10869 10877 10885 10892 10898 10907 10913 10919 10925
10693 10696 10699 10703 10706 10710 10714 10718 10725 10732 10741 10747 10756 10764 10775 10780 10794 10801 10806 10813 10819 10830 10840 10849 10855 10861 10869 10878 10883 10891 10898 10905 10911
10664 10666 10669 10672 10675 10679 10683 10688 10695 10702 10710 10718 10727 10736 10746 10757 10767 10776 10782 10791 10801 10809 10820 10829 10838 10846 10853 10861 10868 10876 10884 10891 10898
10632 10633 10635 10638 10642 10647 10652 10657 10664 10670 10677 10687 10697 10706 10717 10728 10739 10748 10756 10767 10778 10787 10799 10809 10817 10826 10834 10843 10853 10862 10869 10876 10882
10600 10600 10603 10605 10608 10612 10617 10622 10631 10638 10646 10653 10663 10674 10684 10698 10709 10719 10727 10741 10752 10764 10777 10790 10796 10804 10814 10825 10835 10844 10851 10858 10865
10568 10567 10568 10569 10571 10575 10580 10586 10594 10601 10610 10620 10629 10640 10652 10664 10677 10687 10699 10711 10727 10738 10751 10764 10775 10785 10796 10807 10815 10824 10832 10837 10847
10534 10534 10534 10534 10535 10540 10546 10551 10557 10565 10573 10583 10595 10605 10619 10630 10643 10656 10667 10681 10697 10712 10725 10736 10752 10761 10773 10782 10791 10801 10810 10817 10826
10503 10501 10500 10500 10504 10505 10507 10513 10520 10527 10535 10545 10555 10568 10583 10596 10610 10621 10634 10651 10666 10682 10698 10709 10723 10734 10750 10759 10770 10778 10787 10796 10804
10486 10478 10474 10469 10466 10465 10467 10471 10478 10486 10496 10507 10516 10531 10543 10557 10573 10588 10601 10619 10635 10649 10666 10682 10693 10704 10721 10735 10747 10757 10761 10769 10782
10468 10461 10454 10446 10440 10437 10438 10438 10441 10447 10453 10464 10476 10488 10502 10519 10535 10553 10569 10584 10602 10618 10632 10650 10663 10676 10693 10715 10720 10727 10730 10744 10760
10451 10440 10428 10418 10411 10408 10405 10403 10406 10409 10417 10425 10434 10447 10462 10478 10497 10518 10534 10549 10565 10583 10599 10616 10632 10650 10664 10686 10688 10696 10703 10718 10738
10431 10417 10402 10389 10380 10375 10371 10369 10372 10375 10379 10386 10394 10408 10425 10441 10459 10477 10497 10515 10531 10546 10565 10583 10601 10619 10635 10656 10653 10662 10676 10691 10709
10409 10390 10374 10362 10352 10344 10338 10336 10337 10340 10340 10346 10355 10371 10383 10397 10418 10438 10456 10474 10494 10515 10529 10550 10570 10587 10602 10621 10624 10627 10644 10665 10684
10390 10367 10351 10338 10328 10320 10314 10310 10308 10309 10309 10313 10321 10335 10343 10358 10376 10394 10415 10432 10453 10479 10497 10515 10534 10553 10568 10586 10593 10596 10621 10643 10661
10376 10353 10335 10321 10310 10301 10296 10291 10287 10287 10286 10288 10293 10302 10310 10323 10338 10353 10372 10392 10413 10437 10458 10479 10498 10515 10534 10550 10561 10565 10594 10616 10633
10367 10345 10325 10309 10298 10289 10281 10275 10271 10270 10269 10269 10272 10277 10284 10293 10306 10322 10340 10359 10378 10396 10420 10443 10461 10480 10500 10516 10526 10540 10570 10594 10608
10361 10340 10321 10304 10291 10280 10270 10264 10259 10255 10254 10253 10254 10257 10262 10269 10281 10293 10309 10326 10346 10361 10383 10405 10428 10446 10465 10482 10494 10514 10543 10565 10567